EHI
0 0 0 0 0 0 0 0 0 0 0 0 0 0 0 0 0 0 0 0 0 0 0 0 0 0 0 0 0 0 0 0 0 0 0 0 0 0
0 0 0 0 0 0 0 0 0 0 0 0 0 0 0 0 0 0 0 0 0 0 0 0 0 0 0 0 0 0 0 0 0 0 0 0 0 0
0 0 0 0 0 0 0 0 0 0 0 0 0 0 0 0 0 0 0 0 0 0 0 0 0 0 0 0 0 0 0 0 0 0 0 0 0 0
0 0 0 0 0 0 0 0 0 0 0 0 0 0 0 0 0 0 0 0 0 0 0 0 0 0 0 0 0 0 0 0 0 0 0 0 0 0
0 0 0 0 0 0 0 0 0 0 0 0 0 0 0 0 0 0 0 0 0 0 0 0 0 0 0 0 0 0 0 0 0 0 0 0 0 0
0 0 0 0 0 0 0 0 0 0 0 0 0 0 0 0 0 0 0 0 0 0 0 0 0 0 0 0 0 0 0 0 0 0 0 0 0 0
0 0 0 0 0 0 0 0 0 0 0 0 0 0 0 0 0 0 0 0 0 0 0 0 0 0 0 0 0 0 0 0 0 0 0 0 0 0
0 0 0 0 0 0 0 0 0 0 0 0 0 0 0 0 0 0 0 0 0 0 0 0 0 0 0 0 0 0 0 0 0 0 0 0 0 0
0 0 0 0 0 0 0 0 0 0 0 0 0 0 0 0 0 0 0 0 0 0 0 0 0 0 0 0 0 0 0 0 0 0 0 0 0 0
0 0 0 0 0 0 0 0 0 0 0 0 0 0 0 0 0 0 0 0 0 0 0 0 0 0 0 0 0 0 0 0 0 0 0 0 0 0
0 0 0 0 0 0 0 0 0 0 0 0 0 0 0 0 0 0 0 0 0 0 0 0 0 0 0 0 0 0 0 0 0 0 0 0 0 0
0 0 0 0 0 0 0 0 0 0 0 0 0 0 0 0 0 0 0 0 0 0 0 0 0 0 0 0 0 0 0 0 0 0 0 0 0 0
0 0 0 0 0 0 0 0 0 0 0 0 0 0 0 0 0 0 0 0 0 0 0 0 0 0 0 0 0 0 0 0 0 0 0 0 0 0
0 0 0 0 0 0 0 0 0 0 0 0 0 0 0 0 0 0 0 0 0 0 0 0 0 0 0 0 0 0 0 0 0 0 0 0 0 0
0 0 0 0 0 0 0 0 0 0 0 0 0 0 0 0 0 0 0 0 0 0 0 0 0 0 0 0 0 0 0 0 0 0 0 0 0 0
0 0 0 0 0 0 0 0 0 0 0 0 0 0 0 0 0 0 0 0 0 0 0 0 0 0 0 0 0 0 0 0 0 0 0 0 0 0
0 0 0 0 0 0 0 0 0 0 0 0 0 0 0 0 0 0 0 0 0 0 0 0 0 0 0 0 0 0 0 0 0 0 0 0 0 0
0 0 0 0 0 0 0 0 0 0 0 0 0 0 0 0 0 0 0 0 0 0 0 0 0 0 0 0 0 0 0 0 0 0 0 0 0 0
0 0 0 0 0 0 0 0 0 0 0 0 0 0 0 0 0 0 0 0 0 0 0 0 0 0 0 0 0 0 0 0 0 0 0 0 0 0
0 0 0 0 0 0 0 0 0 0 0 0 0 0 0 0 0 0 0 0 0 0 0 0 0 0 0 0 0 0 0 0 0 0 0 0 0 0
0 0 0 0 0 0 0 0 0 0 0 0 0 0 0 0 0 0 0 0 0 0 0 0 0 0 0 0 0 0 0 0 0 0 0 0 0 0
0 0 0 0 0 0 0 0 0 0 0 0 0 0 0 0 0 0 0 0 0 0 0 0 0 0 0 0 0 0 0 0 0 0 0 0 0 0
0 0 0 0 0 0 0 0 0 0 0 0 0 0 0 0 0 0 0 0 0 0 0 0 0 0 0 0 0 0 0 0 0 0 0 0 0 0
Wind_Speed
5 4 3 2 2 2 2 3 3 2 3 3 2 2 1 1 3 2 3 10 13 15 16 16 17 18 18 19 19 19 20 20 20 21 21 22 22 22
4 4 4 3 2 2 2 2 2 3 4 3 2 2 2 3 5 3 4 11 12 15 16 17 17 18 18 19 19 19 20 20 20 20 21 22 22 22
4 5 5 4 3 2 2 2 2 2 4 4 2 3 3 4 4 3 4 4 5 14 17 17 17 18 18 18 19 19 19 19 20 20 21 21 22 22
6 5 4 3 4 3 3 3 3 3 3 5 4 3 4 3 3 4 5 5 4 11 15 17 17 17 18 18 19 19 18 18 19 20 20 20 20 20
6 6 5 5 4 3 3 3 3 3 3 4 5 3 3 3 3 4 5 4 6 9 13 15 16 18 18 19 19 18 17 18 18 19 19 19 19 20
5 5 5 5 5 4 3 4 3 3 3 3 4 4 3 3 3 4 5 3 5 7 9 10 14 16 18 19 19 18 18 18 18 18 18 18 18 18
4 5 5 5 5 4 3 3 3 3 2 3 4 3 3 3 3 3 5 5 5 4 4 5 6 6 8 13 15 17 17 17 17 17 17 18 18 18
5 4 4 4 5 5 5 4 4 3 3 3 3 4 5 4 3 3 4 5 5 3 4 6 5 5 5 5 13 17 17 17 17 17 17 17 17 18
5 4 3 3 3 3 3 4 4 5 5 4 4 5 5 4 4 4 4 5 5 5 4 6 4 5 5 8 17 17 17 17 17 17 17 17 17 18
4 4 4 3 2 2 2 2 2 3 4 3 3 4 4 3 3 4 4 5 5 4 3 5 4 5 7 6 13 16 17 17 18 18 18 17 17 17
3 3 3 3 2 2 1 2 2 3 4 6 6 7 8 8 6 2 3 4 6 5 2 3 4 6 6 4 7 14 17 18 19 18 18 18 18 16
3 2 3 3 2 2 2 2 3 3 2 3 4 5 4 5 7 2 2 3 5 4 2 2 3 5 6 3 4 6 8 13 18 18 18 18 18 9
3 2 2 3 2 2 1 2 3 3 1 2 2 3 3 2 2 2 2 3 4 5 3 3 3 3 4 6 5 5 4 5 7 9 13 17 18 13
3 3 2 3 2 2 2 3 4 4 1 1 2 2 2 2 2 3 3 4 4 5 5 4 3 4 5 7 6 5 5 5 5 5 5 12 14 17
3 4 3 2 1 1 2 3 3 1 1 1 2 3 2 3 2 3 3 4 4 5 5 4 4 4 4 6 7 6 6 6 4 5 5 6 6 6
3 3 3 1 0 1 2 1 0 1 1 2 2 2 2 2 2 2 3 3 4 4 4 4 4 5 5 6 7 8 6 5 6 6 6 6 5 5
4 2 1 1 1 0 1 1 0 1 1 1 2 2 3 3 3 3 3 3 3 4 4 3 4 4 6 7 6 6 6 6 6 6 6 7 6 6
4 2 2 1 1 1 1 1 1 1 1 1 2 2 3 3 3 3 3 3 4 4 4 4 4 4 4 4 6 5 5 5 6 6 6 7 8 6
2 2 2 2 1 1 1 1 1 1 1 1 2 2 3 3 3 4 3 4 4 4 4 3 3 4 6 7 6 4 5 6 7 6 5 6 8 8
2 2 2 2 2 2 1 1 1 1 1 1 2 2 3 3 3 4 3 4 4 5 4 3 3 3 5 6 6 7 9 7 6 7 7 6 6 10
2 2 2 2 2 2 1 1 1 1 1 2 2 2 2 3 3 4 4 7 5 4 5 5 5 8 4 3 5 6 6 9 10 7 7 6 6 5
3 2 2 2 2 2 2 1 1 2 2 2 2 2 2 3 3 4 4 4 4 4 5 4 4 4 3 4 6 7 7 8 10 13 11 8 5 5
3 2 2 2 2 2 2 2 2 2 2 2 2 2 2 3 3 3 4 4 4 4 4 4 4 3 3 4 5 6 8 8 6 7 6 10 12 12
Wind_Direction
191 191 187 186 182 183 175 168 182 243 269 262 267 276 279 261 272 257 265 282 290 294 295 298 300 302 303 304 304 304 305 304 304 303 302 301 301 301
179 181 190 185 184 181 179 184 184 198 246 265 263 287 310 308 288 278 270 293 293 295 297 299 301 302 302 303 303 304 304 305 305 305 304 304 303 302
179 184 195 183 180 185 181 186 203 199 244 271 280 302 301 292 296 289 287 282 289 297 297 300 302 301 303 304 305 306 306 307 308 307 306 306 304 303
185 183 191 179 189 185 187 205 215 213 228 268 286 286 281 287 292 295 303 301 291 298 303 305 304 306 307 306 305 305 307 307 307 308 308 308 308 307
181 183 187 182 199 195 197 211 221 231 230 257 277 279 286 298 301 299 299 296 301 302 300 301 304 305 307 307 308 309 309 308 308 308 310 309 309 309
178 180 185 189 199 197 205 216 220 235 250 261 274 286 291 298 307 299 302 295 299 301 297 303 306 308 309 309 311 311 310 308 308 310 311 311 310 309
176 181 185 185 194 199 207 208 210 230 248 261 272 288 289 303 293 289 299 302 294 286 301 305 304 299 303 305 308 308 309 310 311 312 312 312 311 309
180 183 181 186 202 220 235 235 229 232 240 247 264 275 278 281 289 298 303 308 304 299 309 301 300 297 297 290 307 312 313 314 313 313 313 313 312 310
176 175 179 185 191 197 230 248 257 265 261 254 259 264 274 279 287 287 287 290 287 294 305 295 296 296 301 309 313 313 316 316 316 315 313 312 311 309
172 173 173 178 186 188 194 227 251 263 271 267 253 263 275 275 265 279 283 291 288 291 297 289 299 301 305 303 309 316 321 321 320 318 316 316 315 313
161 157 158 165 184 191 176 227 269 281 294 295 298 299 303 307 314 327 318 313 305 301 282 280 299 309 297 288 307 321 323 322 321 321 322 322 320 319
147 144 155 171 187 194 183 207 256 272 292 308 309 311 308 305 310 301 275 294 302 297 295 308 298 322 311 292 304 313 314 316 319 320 321 322 322 321
156 161 169 174 185 215 232 217 265 295 298 299 303 306 308 302 299 289 267 263 276 277 285 303 296 299 283 300 302 298 301 310 315 312 317 320 321 322
159 159 162 169 198 244 259 290 308 322 326 314 306 298 298 299 298 293 286 278 267 272 280 282 280 290 296 299 299 302 308 304 303 301 303 316 319 319
146 153 154 165 207 246 280 306 320 323 303 294 287 286 287 288 298 303 300 298 293 288 289 284 280 283 280 288 294 300 309 306 301 309 308 307 304 307
132 141 142 156 233 278 295 300 277 246 269 268 284 294 306 310 307 308 309 314 308 302 295 291 288 284 285 281 285 293 297 297 309 311 308 302 299 296
137 121 117 142 194 244 260 268 277 314 305 298 301 310 315 315 313 317 314 317 307 306 314 310 300 288 276 274 282 284 290 295 297 307 313 310 302 298
138 149 174 190 206 217 233 260 273 276 276 289 299 302 305 306 309 316 317 312 307 307 307 308 318 320 315 288 255 273 287 295 302 305 307 307 306 306
146 170 187 195 201 203 212 229 253 260 260 279 290 294 302 305 308 311 314 312 308 305 305 307 316 320 319 319 299 285 305 309 308 307 302 299 299 302
165 179 190 192 193 199 214 233 257 268 269 279 283 287 291 296 302 305 306 304 306 307 308 308 307 308 302 301 297 299 304 304 306 307 307 300 288 292
179 182 184 186 194 199 210 223 236 252 269 275 278 282 285 291 294 298 301 307 311 307 307 305 294 308 299 293 299 300 301 308 312 309 310 309 310 309
181 183 187 189 192 196 206 219 238 249 256 261 271 277 281 285 289 293 296 300 300 300 300 300 305 312 313 309 308 309 310 313 316 316 309 302 307 309
182 183 186 191 195 197 204 217 232 245 250 257 263 269 276 284 284 286 290 292 297 302 308 310 313 312 304 300 303 307 310 315 319 324 317 322 322 310